Torna al catalogo

DELTA 1 DEB

AttivoSSO
NORAD 7150·DEBRIS·🇺🇸 United States

Lanciato Nov 6, 1973 da Vandenberg Space Force Base

Loading…

Prossimi Passaggi (prossime 24 ore)

TLE

AggiornatoSource: Space-Track

Epoca: Sep 14, 2026, 15:26 UTC

1 07150U 73086DQ  26257.64363877  .00000506  00000-0  47501-2 0  9993
2 07150 101.8901 218.5778 0130293  99.1837  75.6425 12.26403752358072

Traccia DELTA 1 DEB in tempo reale con AllMySat

Download on the App Store